カタログに戻る

STARLINK-4797

運用中通信VLEO
NORAD 53852·PAYLOAD·🇺🇸 United States

打ち上げ Sep 19, 2022 から Cape Canaveral Space Force Station

Loading…

次のパス (今後24時間)

TLE

最新Source: CelesTrak SupGP

元期: Sep 14, 2026, 22:06 UTC

1 53852C 22114AL  26257.92131944 -.00025863  00000+0 -83175-3 0  2577
2 53852  53.1592 149.9972 0001546  86.5100  65.0134 15.31711794    16

AllMySatでSTARLINK-4797をリアルタイム追跡

Download on the App Store